^^
Your Local Weather - Clay, NY Station Historical Data
Daily Summary for March 13, 2017 Units:  Metric    English   Both
« Previous Day
Next Day »
Daily Weekly Monthly Yearly Custom
  High: Low: Average:
Temperature: -5.8 °C -15.4 °C -9.5 °C
Dew Point: -14.1 °C -19.5 °C -16.8 °C
Humidity: 80% 38% 57%
Wind Speed: 6.4km/h 0km/h 1.9km/h
Wind Gust: 12.9km/h - -
Wind- - East
Pressure: 1033.7 hPa 1023.6 hPa -
Precipitation: 0 mm    
Historical Graphs
 
 
Tabular Data for March 13, 2017
Time Temperature Dew Point Pressure Wind Wind Speed Wind Gust Humidity Rainfall Rate (Hourly) solar
00:04 -8.3 °C -14.3 °C 1030 hPa Calm   1.6 km/h 62% 0 mm 0 W/m2
00:10 -8.6 °C -14.6 °C 1030 hPa NW 1.6 km/h 1.6 km/h 62% 0 mm 0 W/m2
00:16 -8.7 °C -14.4 °C 1030 hPa NW 1.6 km/h 6.4 km/h 63% 0 mm 0 W/m2
00:22 -8.7 °C -14.4 °C 1030 hPa NW 3.2 km/h 3.2 km/h 63% 0 mm 0 W/m2
00:28 -8.8 °C -14.7 °C 1030 hPa NW 1.6 km/h 3.2 km/h 62% 0 mm 0 W/m2
00:34 -9 °C -14.8 °C 1030.4 hPa Calm     63% 0 mm 0 W/m2
00:40 -9.2 °C -15 °C 1030.4 hPa Calm     63% 0 mm 0 W/m2
00:46 -9.6 °C -15.1 °C 1030.4 hPa Calm     64% 0 mm 0 W/m2
00:52 -9.8 °C -15.2 °C 1030.4 hPa Calm     65% 0 mm 0 W/m2
00:58 -10.2 °C -15.5 °C 1030.4 hPa Calm     65% 0 mm 0 W/m2
01:04 -10.5 °C -15.6 °C 1030.4 hPa Calm     66% 0 mm 0 W/m2
01:10 -10.8 °C -15.6 °C 1030.4 hPa Calm     68% 0 mm 0 W/m2
01:16 -11.2 °C -15.7 °C 1030.4 hPa Calm     69% 0 mm 0 W/m2
01:22 -11.5 °C -15.9 °C 1030.4 hPa Calm     70% 0 mm 0 W/m2
01:28 -11.8 °C -15.8 °C 1030.4 hPa Calm     72% 0 mm 0 W/m2
01:34 -11.9 °C -15.8 °C 1030.4 hPa Calm     73% 0 mm 0 W/m2
01:40 -12.1 °C -15.9 °C 1030.4 hPa Calm     73% 0 mm 0 W/m2
01:46 -12.4 °C -16.3 °C 1030.4 hPa Calm     73% 0 mm 0 W/m2
01:52 -12.7 °C -16.3 °C 1030.4 hPa Calm     74% 0 mm 0 W/m2
01:58 -12.9 °C -16.6 °C 1030.4 hPa Calm     74% 0 mm 0 W/m2
02:04 -13.2 °C -16.7 °C 1030.4 hPa Calm     75% 0 mm 0 W/m2
02:10 -13.4 °C -16.9 °C 1030.4 hPa Calm     75% 0 mm 0 W/m2
02:16 -13.4 °C -16.6 °C 1030.4 hPa Calm     77% 0 mm 0 W/m2
02:22 -13.4 °C -16.6 °C 1030.7 hPa Calm     77% 0 mm 0 W/m2
02:28 -13.2 °C -16.2 °C 1030.7 hPa Calm     78% 0 mm 0 W/m2
02:34 -13.2 °C -16.1 °C 1031 hPa Calm     79% 0 mm 0 W/m2
02:40 -13.4 °C -16.3 °C 1031 hPa Calm     79% 0 mm 0 W/m2
02:46 -13.4 °C -16.3 °C 1031 hPa Calm   4.8 km/h 79% 0 mm 0 W/m2
02:52 -12.8 °C -15.6 °C 1031 hPa Calm   1.6 km/h 80% 0 mm 0 W/m2
02:58 -12.7 °C -15.8 °C 1031 hPa Calm   1.6 km/h 78% 0 mm 0 W/m2
03:04 -12.6 °C -15.8 °C 1031 hPa NNW 1.6 km/h 3.2 km/h 77% 0 mm 0 W/m2
03:10 -12.2 °C -15.6 °C 1031 hPa NNE 3.2 km/h 3.2 km/h 76% 0 mm 0 W/m2
03:16 -11.8 °C -15.9 °C 1031.4 hPa NE 3.2 km/h 6.4 km/h 72% 0 mm 0 W/m2
03:22 -11.8 °C -16.2 °C 1031.4 hPa ENE 1.6 km/h 3.2 km/h 70% 0 mm 0 W/m2
03:28 -11.8 °C -16.5 °C 1031.4 hPa NE 1.6 km/h 3.2 km/h 68% 0 mm 0 W/m2
03:34 -11.9 °C -16.8 °C 1031.4 hPa NE 1.6 km/h 1.6 km/h 67% 0 mm 0 W/m2
03:40 -12.1 °C -16.9 °C 1031.4 hPa Calm     67% 0 mm 0 W/m2
03:46 -12.2 °C -17.1 °C 1031.7 hPa Calm     67% 0 mm 0 W/m2
03:52 -12.3 °C -16.8 °C 1031.4 hPa Calm     69% 0 mm 0 W/m2
03:58 -12.6 °C -16.9 °C 1031.4 hPa Calm     70% 0 mm 0 W/m2
04:04 -12.8 °C -17 °C 1031.4 hPa Calm     71% 0 mm 0 W/m2
04:10 -13 °C -17.2 °C 1031.7 hPa Calm     71% 0 mm 0 W/m2
04:16 -13.2 °C -17.6 °C 1031.7 hPa Calm     70% 0 mm 0 W/m2
04:22 -13.4 °C -17.4 °C 1031.7 hPa Calm     72% 0 mm 0 W/m2
04:28 -13.6 °C -17.6 °C 1031.7 hPa Calm     72% 0 mm 0 W/m2
04:34 -13.8 °C -17.6 °C 1031.7 hPa Calm     73% 0 mm 0 W/m2
04:40 -13.9 °C -17.4 °C 1031.7 hPa Calm     75% 0 mm 0 W/m2
04:46 -14.1 °C -17.6 °C 1031.7 hPa Calm     75% 0 mm 0 W/m2
04:52 -14.3 °C -17.8 °C 1032.1 hPa Calm     75% 0 mm 0 W/m2
04:58 -14.4 °C -17.9 °C 1032.1 hPa Calm     75% 0 mm 0 W/m2
05:04 -14.5 °C -17.9 °C 1032.1 hPa Calm     75% 0 mm 0 W/m2
05:10 -14.4 °C -17.7 °C 1032.1 hPa Calm     76% 0 mm 0 W/m2
05:16 -14.4 °C -17.7 °C 1032.1 hPa Calm     76% 0 mm 0 W/m2
05:22 -14.4 °C -17.7 °C 1032.1 hPa Calm     76% 0 mm 0 W/m2
05:28 -14.6 °C -17.8 °C 1032.1 hPa Calm     76% 0 mm 0 W/m2
05:34 -14.7 °C -17.9 °C 1032.1 hPa Calm     76% 0 mm 0 W/m2
05:40 -14.8 °C -18.1 °C 1032.1 hPa Calm     76% 0 mm 0 W/m2
05:46 -14.9 °C -18.2 °C 1032.4 hPa Calm     76% 0 mm 0 W/m2
05:52 -15.1 °C -18.4 °C 1032.4 hPa Calm     76% 0 mm 0 W/m2
05:58 -15.3 °C -18.4 °C 1032.4 hPa Calm     77% 0 mm 0 W/m2
06:04 -15.4 °C -18.5 °C 1032.4 hPa Calm     77% 0 mm 0 W/m2
06:10 -15.4 °C -18.6 °C 1032.4 hPa Calm     77% 0 mm 0 W/m2
06:16 -15.4 °C -18.3 °C 1032.4 hPa Calm     78% 0 mm 0 W/m2
06:22 -15.3 °C -18.3 °C 1032.7 hPa Calm   1.6 km/h 78% 0 mm 0 W/m2
06:28 -15.3 °C -18.3 °C 1032.7 hPa Calm   1.6 km/h 78% 0 mm 0 W/m2
06:34 -15.3 °C -18.3 °C 1032.7 hPa Calm     78% 0 mm 0 W/m2
06:40 -15.3 °C -18.2 °C 1032.7 hPa Calm     79% 0 mm 0 W/m2
06:46 -15.2 °C -18 °C 1032.7 hPa Calm     79% 0 mm 0 W/m2
06:52 -15 °C -17.8 °C 1032.7 hPa Calm     79% 0 mm 0 W/m2
06:58 -14.9 °C -17.8 °C 1032.7 hPa Calm     79% 0 mm 0 W/m2
07:04 -14.9 °C -17.7 °C 1032.7 hPa Calm     79% 0 mm 0 W/m2
07:10 -14.7 °C -17.3 °C 1032.7 hPa Calm     80% 0 mm 0 W/m2
07:16 -14.4 °C -17.1 °C 1032.7 hPa Calm     80% 0 mm 0 W/m2
07:22 -14.4 °C -17.1 °C 1032.7 hPa Calm     80% 0 mm 5 W/m2
07:28 -14.3 °C -17 °C 1032.7 hPa Calm     80% 0 mm 9 W/m2
07:34 -14.2 °C -16.9 °C 1032.7 hPa Calm     80% 0 mm 14 W/m2
07:40 -14.2 °C -16.9 °C 1032.7 hPa Calm     80% 0 mm 18 W/m2
07:46 -14.1 °C -16.8 °C 1033.1 hPa Calm     80% 0 mm 25 W/m2
07:52 -13.9 °C -16.7 °C 1033.1 hPa Calm     80% 0 mm 33 W/m2
07:58 -13.8 °C -16.6 °C 1033.1 hPa Calm     80% 0 mm 42 W/m2
08:04 -13.7 °C -16.4 °C 1033.1 hPa Calm     80% 0 mm 49 W/m2
08:10 -13.5 °C -16.2 °C 1033.1 hPa Calm     80% 0 mm 60 W/m2
08:16 -13.2 °C -15.9 °C 1033.4 hPa Calm     80% 0 mm 69 W/m2
08:22 -12.9 °C -15.6 °C 1033.4 hPa Calm     80% 0 mm 77 W/m2
08:28 -12.6 °C -15.5 °C 1033.4 hPa Calm     79% 0 mm 90 W/m2
08:34 -12.4 °C -15.6 °C 1033.4 hPa Calm     77% 0 mm 93 W/m2
08:40 -12.2 °C -16 °C 1033.4 hPa Calm   3.2 km/h 73% 0 mm 105 W/m2
08:46 -11.9 °C -16.2 °C 1033.1 hPa Calm   3.2 km/h 71% 0 mm 121 W/m2
08:52 -11.7 °C -16.2 °C 1033.1 hPa Calm     69% 0 mm 134 W/m2
08:58 -11.6 °C -17.2 °C 1033.4 hPa Calm   3.2 km/h 63% 0 mm 132 W/m2
09:04 -11.3 °C -17.2 °C 1033.4 hPa Calm   3.2 km/h 62% 0 mm 139 W/m2
09:10 -11.2 °C -17.3 °C 1033.4 hPa NE 1.6 km/h 3.2 km/h 61% 0 mm 155 W/m2
09:16 -11.2 °C -17.2 °C 1033.7 hPa ESE 1.6 km/h 3.2 km/h 61% 0 mm 165 W/m2
09:22 -11.1 °C -17.3 °C 1033.7 hPa ESE 1.6 km/h 1.6 km/h 60% 0 mm 178 W/m2
09:28 -10.9 °C -17.3 °C 1033.7 hPa Calm   4.8 km/h 59% 0 mm 188 W/m2
09:34 -10.7 °C -17.2 °C 1033.7 hPa ESE 1.6 km/h 1.6 km/h 59% 0 mm 209 W/m2
09:40 -10.4 °C -17.1 °C 1033.7 hPa ESE 1.6 km/h 1.6 km/h 58% 0 mm 218 W/m2
09:46 -10.4 °C -17.3 °C 1033.4 hPa ESE 1.6 km/h 4.8 km/h 57% 0 mm 213 W/m2
09:52 -10.4 °C -17.5 °C 1033.4 hPa ESE 1.6 km/h 6.4 km/h 56% 0 mm 230 W/m2
09:58 -10.3 °C -18.1 °C 1033.7 hPa East 1.6 km/h 6.4 km/h 53% 0 mm 243 W/m2
10:04 -10.2 °C -18.2 °C 1033.7 hPa ESE 1.6 km/h 1.6 km/h 52% 0 mm 253 W/m2
10:10 -10.2 °C -18.4 °C 1033.7 hPa SSE 1.6 km/h 1.6 km/h 51% 0 mm 269 W/m2
10:16 -10.2 °C -18.4 °C 1033.7 hPa ESE 1.6 km/h 3.2 km/h 51% 0 mm 264 W/m2
10:22 -10 °C -18.5 °C 1033.7 hPa SE 1.6 km/h 6.4 km/h 50% 0 mm 283 W/m2
10:28 -9.9 °C -18.6 °C 1033.7 hPa East 3.2 km/h 6.4 km/h 49% 0 mm 287 W/m2
10:34 -9.8 °C -18.8 °C 1033.7 hPa ENE 3.2 km/h 4.8 km/h 48% 0 mm 322 W/m2
10:40 -9.7 °C -18.4 °C 1033.4 hPa NE 3.2 km/h 4.8 km/h 49% 0 mm 325 W/m2
10:46 -9.5 °C -18.2 °C 1033.4 hPa SE 3.2 km/h 6.4 km/h 49% 0 mm 336 W/m2
10:52 -9.6 °C -18.8 °C 1033.4 hPa ENE 3.2 km/h 3.2 km/h 47% 0 mm 359 W/m2
10:58 -9.4 °C -18.7 °C 1033.1 hPa ESE 3.2 km/h 4.8 km/h 47% 0 mm 350 W/m2
11:04 -9.5 °C -19 °C 1033.1 hPa ESE 3.2 km/h 3.2 km/h 46% 0 mm 341 W/m2
11:10 -9.3 °C -18.3 °C 1033.1 hPa ESE 3.2 km/h 3.2 km/h 48% 0 mm 352 W/m2
11:16 -9.2 °C -19.2 °C 1032.7 hPa ENE 3.2 km/h 6.4 km/h 44% 0 mm 376 W/m2
11:22 -9.4 °C -19.4 °C 1032.7 hPa SE 4.8 km/h 4.8 km/h 44% 0 mm 417 W/m2
11:28 -9.1 °C -19.4 °C 1032.4 hPa NE 3.2 km/h 6.4 km/h 43% 0 mm 431 W/m2
11:34 -9.1 °C -19.4 °C 1032.4 hPa East 3.2 km/h 4.8 km/h 43% 0 mm 392 W/m2
11:40 -8.9 °C -19.5 °C 1032.4 hPa NE 3.2 km/h 4.8 km/h 42% 0 mm 378 W/m2
11:46 -8.9 °C -18.9 °C 1032.4 hPa ENE 3.2 km/h 4.8 km/h 44% 0 mm 362 W/m2
11:52 -8.8 °C -18.6 °C 1032.1 hPa ENE 3.2 km/h 3.2 km/h 45% 0 mm 367 W/m2
11:58 -8.9 °C -19.3 °C 1032.1 hPa SSE 3.2 km/h 4.8 km/h 43% 0 mm 374 W/m2
12:04 -9 °C -18.8 °C 1032.1 hPa NNE 4.8 km/h 4.8 km/h 45% 0 mm 371 W/m2
12:10 -8.7 °C -18.3 °C 1032.1 hPa NNE 4.8 km/h 6.4 km/h 46% 0 mm 381 W/m2
12:16 -8.5 °C -18.1 °C 1031.7 hPa ENE 3.2 km/h 11.3 km/h 46% 0 mm 396 W/m2
12:22 -8.4 °C -18.6 °C 1031.7 hPa NE 3.2 km/h 9.7 km/h 44% 0 mm 392 W/m2
12:28 -8.2 °C -17.8 °C 1031.7 hPa NE 4.8 km/h 9.7 km/h 46% 0 mm 418 W/m2
12:34 -8.4 °C -18.5 °C 1032.1 hPa ENE 4.8 km/h 6.4 km/h 44% 0 mm 454 W/m2
12:40 -8.4 °C -19.1 °C 1032.1 hPa ESE 4.8 km/h 4.8 km/h 42% 0 mm 443 W/m2
12:46 -8.2 °C -18.1 °C 1032.1 hPa North 3.2 km/h 8 km/h 45% 0 mm 457 W/m2
12:52 -8.1 °C -18.8 °C 1031.7 hPa ENE 3.2 km/h 3.2 km/h 42% 0 mm 443 W/m2
12:58 -8.1 °C -18.4 °C 1032.1 hPa NE 4.8 km/h 4.8 km/h 43% 0 mm 464 W/m2
13:04 -7.6 °C -18.3 °C 1031.7 hPa North 3.2 km/h 4.8 km/h 42% 0 mm 436 W/m2
13:10 -7.8 °C -18.8 °C 1031.4 hPa NE 1.6 km/h 1.6 km/h 41% 0 mm 439 W/m2
13:16 -7.7 °C -18.2 °C 1031.4 hPa ENE 3.2 km/h 4.8 km/h 43% 0 mm 496 W/m2
13:22 -7.7 °C -18.2 °C 1031.4 hPa ENE 3.2 km/h 6.4 km/h 43% 0 mm 506 W/m2
13:28 -7.8 °C -18 °C 1031.4 hPa SE 4.8 km/h 6.4 km/h 44% 0 mm 464 W/m2
13:34 -7.3 °C -17.5 °C 1031.4 hPa ESE 3.2 km/h 3.2 km/h 44% 0 mm 388 W/m2
13:40 -7.5 °C -18.2 °C 1031.4 hPa NE 3.2 km/h 3.2 km/h 42% 0 mm 338 W/m2
13:46 -7.3 °C -16.7 °C 1031 hPa North 3.2 km/h 4.8 km/h 47% 0 mm 311 W/m2
13:52 -7.6 °C -18 °C 1031 hPa North 3.2 km/h 4.8 km/h 43% 0 mm 304 W/m2
13:58 -7.4 °C -17.6 °C 1031 hPa NE 3.2 km/h 4.8 km/h 44% 0 mm 309 W/m2
14:04 -7.4 °C -17.9 °C 1031 hPa South 3.2 km/h 4.8 km/h 43% 0 mm 309 W/m2
14:10 -7.5 °C -18.2 °C 1030.7 hPa NNE 3.2 km/h 3.2 km/h 42% 0 mm 297 W/m2
14:16 -7.3 °C -17.5 °C 1030.4 hPa NNE 4.8 km/h 4.8 km/h 44% 0 mm 283 W/m2
14:22 -7.1 °C -17 °C 1030.4 hPa East 3.2 km/h 3.2 km/h 45% 0 mm 274 W/m2
14:28 -7.1 °C -17.3 °C 1030 hPa SE 3.2 km/h 6.4 km/h 44% 0 mm 271 W/m2
14:34 -7.3 °C -17.2 °C 1030 hPa ENE 3.2 km/h 4.8 km/h 45% 0 mm 278 W/m2
14:40 -7.3 °C -17.3 °C 1030 hPa East 3.2 km/h 4.8 km/h 45% 0 mm 258 W/m2
14:46 -7.2 °C -17.4 °C 1030 hPa NE 3.2 km/h 4.8 km/h 44% 0 mm 257 W/m2
14:52 -7.2 °C -17.7 °C 1029.7 hPa NNE 3.2 km/h 6.4 km/h 43% 0 mm 250 W/m2
14:58 -7.2 °C -16.6 °C 1029.7 hPa NE 4.8 km/h 9.7 km/h 47% 0 mm 278 W/m2
15:04 -6.9 °C -17.4 °C 1029.3 hPa NE 4.8 km/h 4.8 km/h 43% 0 mm 316 W/m2
15:10 -6.9 °C -17.7 °C 1029.3 hPa East 4.8 km/h 4.8 km/h 42% 0 mm 306 W/m2
15:16 -7 °C -17.5 °C 1029.3 hPa NNE 3.2 km/h 6.4 km/h 43% 0 mm 287 W/m2
15:22 -6.9 °C -18 °C 1029 hPa East 4.8 km/h 8 km/h 41% 0 mm 255 W/m2
15:28 -7.1 °C -18.1 °C 1028.7 hPa North 6.4 km/h 8 km/h 41% 0 mm 244 W/m2
15:34 -6.9 °C -17.4 °C 1029 hPa NNE 4.8 km/h 4.8 km/h 43% 0 mm 227 W/m2
15:40 -6.9 °C -17.9 °C 1029 hPa North 6.4 km/h 6.4 km/h 41% 0 mm 200 W/m2
15:46 -6.8 °C -17.3 °C 1028.7 hPa NNE 6.4 km/h 8 km/h 43% 0 mm 200 W/m2
15:52 -6.8 °C -17.9 °C 1028.7 hPa ENE 4.8 km/h 6.4 km/h 41% 0 mm 195 W/m2
15:58 -6.8 °C -17.6 °C 1028.7 hPa ENE 6.4 km/h 8 km/h 42% 0 mm 195 W/m2
16:04 -6.8 °C -17.6 °C 1028.7 hPa NNE 6.4 km/h 12.9 km/h 42% 0 mm 192 W/m2
16:10 -6.8 °C -17.3 °C 1028.3 hPa NNE 6.4 km/h 6.4 km/h 43% 0 mm 202 W/m2
16:16 -6.7 °C -17.4 °C 1028.3 hPa NNE 4.8 km/h 11.3 km/h 42% 0 mm 223 W/m2
16:22 -6.7 °C -16.7 °C 1028.3 hPa North 4.8 km/h 6.4 km/h 45% 0 mm 209 W/m2
16:28 -6.7 °C -17.8 °C 1028 hPa NE 4.8 km/h 8 km/h 41% 0 mm 206 W/m2
16:34 -6.7 °C -17.4 °C 1028 hPa ENE 4.8 km/h 11.3 km/h 42% 0 mm 214 W/m2
16:40 -6.5 °C -17.9 °C 1028 hPa ENE 4.8 km/h 8 km/h 40% 0 mm 221 W/m2
16:46 -6.6 °C -17.7 °C 1027.7 hPa North 4.8 km/h 8 km/h 41% 0 mm 218 W/m2
16:52 -6.4 °C -17 °C 1027.7 hPa East 6.4 km/h 9.7 km/h 43% 0 mm 195 W/m2
16:58 -6.4 °C -18.4 °C 1027.7 hPa NNE 6.4 km/h 11.3 km/h 38% 0 mm 190 W/m2
17:04 -6.4 °C -18.4 °C 1027.3 hPa ENE 6.4 km/h 8 km/h 38% 0 mm 179 W/m2
17:10 -6.3 °C -18.3 °C 1027.3 hPa ENE 6.4 km/h 6.4 km/h 38% 0 mm 171 W/m2
17:16 -6.2 °C -17.7 °C 1027.7 hPa SE 4.8 km/h 12.9 km/h 40% 0 mm 142 W/m2
17:22 -6.3 °C -18.3 °C 1027.3 hPa NNE 6.4 km/h 9.7 km/h 38% 0 mm 137 W/m2
17:28 -6.3 °C -17.4 °C 1027.3 hPa ENE 4.8 km/h 11.3 km/h 41% 0 mm 123 W/m2
17:34 -6.3 °C -17.4 °C 1027.3 hPa ENE 4.8 km/h 6.4 km/h 41% 0 mm 111 W/m2
17:40 -6.2 °C -17.3 °C 1027.3 hPa East 4.8 km/h 4.8 km/h 41% 0 mm 111 W/m2
17:46 -6.2 °C -17.6 °C 1027.3 hPa NE 3.2 km/h 6.4 km/h 40% 0 mm 100 W/m2
17:52 -6.2 °C -17 °C 1027.3 hPa NE 3.2 km/h 6.4 km/h 42% 0 mm 86 W/m2
17:58 -6.1 °C -16.9 °C 1027.3 hPa ENE 3.2 km/h 6.4 km/h 42% 0 mm 74 W/m2
18:04 -6.1 °C -16.7 °C 1027.3 hPa NNE 4.8 km/h 4.8 km/h 43% 0 mm 58 W/m2
18:10 -6.1 °C -16.9 °C 1027.3 hPa East 3.2 km/h 3.2 km/h 42% 0 mm 51 W/m2
18:16 -6.2 °C -17 °C 1027.3 hPa East 3.2 km/h 4.8 km/h 42% 0 mm 44 W/m2
18:22 -6.2 °C -16.2 °C 1027.3 hPa East 1.6 km/h 3.2 km/h 45% 0 mm 37 W/m2
18:28 -6.2 °C -16.8 °C 1027.3 hPa NE 3.2 km/h 8 km/h 43% 0 mm 30 W/m2
18:34 -6.2 °C -16.2 °C 1027.3 hPa ENE 3.2 km/h 4.8 km/h 45% 0 mm 25 W/m2
18:40 -6.2 °C -16.5 °C 1027.3 hPa ENE 3.2 km/h 3.2 km/h 44% 0 mm 19 W/m2
18:46 -6.2 °C -15.7 °C 1027.3 hPa ENE 1.6 km/h 3.2 km/h 47% 0 mm 12 W/m2
18:52 -6.2 °C -16.2 °C 1027.3 hPa North 1.6 km/h 1.6 km/h 45% 0 mm 9 W/m2
18:58 -6.3 °C -16 °C 1027.3 hPa NNE 1.6 km/h 1.6 km/h 46% 0 mm 5 W/m2
19:04 -6.3 °C -15.8 °C 1027 hPa NNE 1.6 km/h 1.6 km/h 47% 0 mm 0 W/m2
19:10 -6.3 °C -15.8 °C 1027 hPa NNE 1.6 km/h 3.2 km/h 47% 0 mm 0 W/m2
19:18 -6.3 °C -15.3 °C 1027 hPa Calm   3.2 km/h 49% 0 mm 0 W/m2
19:24 -6.3 °C -15.6 °C 1027 hPa Calm   4.8 km/h 48% 0 mm 0 W/m2
19:30 -6.3 °C -15.1 °C 1027 hPa Calm   1.6 km/h 50% 0 mm 0 W/m2
19:36 -6.4 °C -15.1 °C 1027 hPa NNE 1.6 km/h 4.8 km/h 50% 0 mm 0 W/m2
19:42 -6.4 °C -14.9 °C 1026.6 hPa North 1.6 km/h 3.2 km/h 51% 0 mm 0 W/m2
19:48 -6.6 °C -15.5 °C 1026.6 hPa North 3.2 km/h 3.2 km/h 49% 0 mm 0 W/m2
19:54 -6.6 °C -15.6 °C 1026.6 hPa North 3.2 km/h 3.2 km/h 49% 0 mm 0 W/m2
20:00 -6.6 °C -15.6 °C 1026.6 hPa North 1.6 km/h 1.6 km/h 49% 0 mm 0 W/m2
20:06 -6.7 °C -15.4 °C 1026.6 hPa North 1.6 km/h 1.6 km/h 50% 0 mm 0 W/m2
20:12 -6.7 °C -15.4 °C 1026.6 hPa NE 1.6 km/h 1.6 km/h 50% 0 mm 0 W/m2
20:18 -6.7 °C -15.7 °C 1026.6 hPa North 3.2 km/h 8 km/h 49% 0 mm 0 W/m2
20:24 -6.7 °C -15.7 °C 1026.6 hPa North 3.2 km/h 3.2 km/h 49% 0 mm 0 W/m2
20:30 -6.7 °C -15.4 °C 1026.6 hPa North 1.6 km/h 1.6 km/h 50% 0 mm 0 W/m2
20:36 -6.7 °C -15.2 °C 1026.6 hPa Calm   4.8 km/h 51% 0 mm 0 W/m2
20:42 -6.8 °C -15.2 °C 1026.6 hPa Calm     51% 0 mm 0 W/m2
20:48 -6.8 °C -15 °C 1026.6 hPa Calm   3.2 km/h 52% 0 mm 0 W/m2
20:54 -6.8 °C -15 °C 1026.6 hPa Calm     52% 0 mm 0 W/m2
21:00 -6.8 °C -15 °C 1026.3 hPa Calm   1.6 km/h 52% 0 mm 0 W/m2
21:06 -6.8 °C -15 °C 1026.6 hPa Calm   4.8 km/h 52% 0 mm 0 W/m2
21:12 -6.7 °C -14.9 °C 1026.3 hPa North 1.6 km/h 1.6 km/h 52% 0 mm 0 W/m2
21:18 -6.7 °C -14.9 °C 1026.3 hPa Calm   1.6 km/h 52% 0 mm 0 W/m2
21:24 -6.7 °C -14.9 °C 1026.6 hPa Calm   1.6 km/h 52% 0 mm 0 W/m2
21:30 -6.7 °C -14.9 °C 1026.3 hPa Calm   3.2 km/h 52% 0 mm 0 W/m2
21:36 -6.7 °C -14.7 °C 1026.3 hPa Calm   3.2 km/h 53% 0 mm 0 W/m2
21:42 -6.7 °C -14.4 °C 1026.3 hPa Calm   1.6 km/h 54% 0 mm 0 W/m2
21:48 -6.7 °C -14.2 °C 1026.3 hPa Calm   1.6 km/h 55% 0 mm 0 W/m2
21:54 -6.7 °C -14.7 °C 1025.6 hPa Calm   3.2 km/h 53% 0 mm 0 W/m2
22:00 -6.6 °C -14.4 °C 1025.3 hPa NNE 1.6 km/h 1.6 km/h 54% 0 mm 0 W/m2
22:06 -6.6 °C -14.4 °C 1025.3 hPa NNE 1.6 km/h 4.8 km/h 54% 0 mm 0 W/m2
22:12 -6.6 °C -14.4 °C 1024.9 hPa NNE 1.6 km/h 1.6 km/h 54% 0 mm 0 W/m2
22:18 -6.6 °C -14.1 °C 1025.3 hPa NNE 1.6 km/h 1.6 km/h 55% 0 mm 0 W/m2
22:24 -6.6 °C -14.3 °C 1024.9 hPa North 1.6 km/h 3.2 km/h 54% 0 mm 0 W/m2
22:28 -6.6 °C -14.3 °C 1024.6 hPa North 1.6 km/h 3.2 km/h 54% 0 mm 0 W/m2
22:34 -6.5 °C -14.3 °C 1024.6 hPa North 1.6 km/h 4.8 km/h 54% 0 mm 0 W/m2
22:40 -6.5 °C -14.3 °C 1024.6 hPa NNE 1.6 km/h 3.2 km/h 54% 0 mm 0 W/m2
22:46 -6.4 °C -14.4 °C 1024.3 hPa NNE 1.6 km/h 3.2 km/h 53% 0 mm 0 W/m2
22:52 -6.4 °C -14.2 °C 1024.3 hPa NNE 1.6 km/h 1.6 km/h 54% 0 mm 0 W/m2
22:58 -6.2 °C -14.9 °C 1023.9 hPa East 1.6 km/h 8 km/h 50% 0 mm 0 W/m2
23:04 -6.2 °C -14.7 °C 1023.9 hPa ENE 3.2 km/h 3.2 km/h 51% 0 mm 0 W/m2
23:10 -6 °C -15.3 °C 1023.9 hPa ESE 3.2 km/h 6.4 km/h 48% 0 mm 0 W/m2
23:16 -5.9 °C -15.2 °C 1023.9 hPa NE 3.2 km/h 6.4 km/h 48% 0 mm 0 W/m2
23:22 -5.9 °C -14.7 °C 1023.9 hPa ENE 1.6 km/h 1.6 km/h 50% 0 mm 0 W/m2
23:28 -5.9 °C -15.2 °C 1023.9 hPa East 1.6 km/h 3.2 km/h 48% 0 mm 0 W/m2
23:34 -5.9 °C -15.2 °C 1023.9 hPa NE 3.2 km/h 4.8 km/h 48% 0 mm 0 W/m2
23:40 -5.9 °C -15.2 °C 1023.9 hPa NNE 3.2 km/h 3.2 km/h 48% 0 mm 0 W/m2
23:46 -5.9 °C -15.2 °C 1023.9 hPa ENE 1.6 km/h 3.2 km/h 48% 0 mm 0 W/m2
23:52 -5.9 °C -14.9 °C 1023.9 hPa ENE 1.6 km/h 1.6 km/h 49% 0 mm 0 W/m2
23:58 -5.8 °C -15.1 °C 1023.6 hPa NE 3.2 km/h 4.8 km/h 48% 0 mm 0 W/m2
Country Meadow, Clay, NY, USA
Compliments of Weather Underground - 2 mb